[[{"header":{"parameterUnit":"m.s-1","parameterCategory":1,"la1":30.2991,"la2":30.254,"lo1":-89.0895,"lo2":-89.0444,"dy":0.0017,"dx":0.0017,"nx":28,"ny":28,"refTime":"2024-07-04T03:00:00:Z","depth":0,"parameterNumber":2,"parameterNumberName":"U-component_of_WINDS"},"data":[0,0,0,0,0,0,0,0,0,0,0,0,0,0,0,0,0,0,0,0,0,0,0,0,0,0,0,0,0,0,0,0,0,0,0,0,0,0,0,0,0,0,0,0,0,0,0,0,0,0,0,0,0,0,0,0,0,0,3.5038,3.5039,0,3.5148,3.515,3.5151,3.5123,3.5121,3.5119,3.5117,3.5228,3.5232,3.5237,0,0,0,0,0,0,0,0,0,0,0,0,0,3.48,3.4805,3.5038,3.504,3.5041,3.5148,3.515,3.5151,3.5124,3.5121,3.5118,3.5116,3.5226,3.5232,3.5238,0,0,0,0,0,0,0,0,0,0,0,0,0,3.4906,3.4806,3.5038,3.504,3.5041,3.5148,3.515,3.5152,3.5124,3.5121,3.5118,3.5115,3.5224,3.5231,3.5239,3.5349,0,0,3.5261,3.5265,0,0,0,0,0,0,0,0,3.49,3.4915,3.5038,3.504,3.5042,3.5119,3.5106,3.5218,3.5125,3.5093,3.5117,3.5113,3.5194,3.5204,3.5231,3.5354,3.5359,3.5262,3.5266,3.527,3.5272,0,0,0,0,0,0,0,3.4893,3.491,3.5082,3.504,3.5042,3.5034,3.5046,3.5127,3.516,3.5095,3.5094,3.5107,3.5194,3.5224,3.5234,3.536,3.5262,3.5268,3.5273,3.5276,3.5576,3.5579,0,0,0,0,0,0,3.4885,3.4904,3.5078,3.5085,3.4962,3.5041,3.5054,3.5097,3.5159,3.5165,3.511,3.5105,3.5213,3.5225,3.5237,3.5368,3.527,3.5277,3.5281,3.5572,3.5577,3.558,0,0,0,0,0,0,3.488,3.49,3.5074,3.4994,3.5016,3.5049,3.5098,3.5101,3.5131,3.517,3.5175,3.5135,3.5211,3.5227,3.5321,3.5371,3.528,3.5287,3.5568,3.5574,3.5578,3.5631,0,0,0,0,0,0,3.4873,3.4899,3.4942,3.4995,3.502,3.5156,3.5101,3.5106,3.5144,3.514,3.5195,3.5201,3.521,3.531,3.5328,3.538,3.5292,3.5564,3.5571,3.5577,3.5625,3.5638,3.5649,0,0,0,0,0,3.4865,3.4953,3.4944,3.4966,3.5075,3.516,3.5173,3.5183,3.5149,3.5191,3.5216,3.5199,3.5364,3.532,3.534,3.5395,3.556,3.5569,3.5576,3.562,3.5635,3.5648,0,0,0,0,0,0,3.4904,3.496,3.4951,3.506,3.5105,3.5155,3.5209,3.5199,3.5255,3.5248,3.5256,3.5269,3.5364,3.5389,3.534,3.5503,3.5457,3.5469,3.5483,3.5498,3.5509,3.55,3.5299,0,0,0,0,0,3.4926,3.4991,3.5036,3.5127,3.515,3.5176,3.5213,3.5216,3.5263,3.5282,3.5314,3.5359,3.5421,3.5461,3.552,3.5629,3.5639,3.5677,3.5689,3.5698,3.5708,3.5764,3.578,3.5606,3.5606,3.5606,0,0,3.497,3.5009,3.5049,3.5136,3.5171,3.5236,3.5192,3.5264,3.5312,3.5293,3.5382,3.5407,3.5459,3.556,3.5606,3.5583,3.5758,3.5708,3.5715,3.572,3.5774,3.579,3.5805,3.5612,3.5611,3.561,0,0,3.5084,3.5122,3.52,3.5236,3.5291,3.5307,3.5326,3.5377,3.5393,3.5483,3.5469,3.5526,3.5634,3.5669,3.5702,3.5828,3.5814,3.5848,3.5908,3.5962,3.5976,3.5988,3.603,3.6045,3.5858,3.5858,3.5858,0,3.5133,3.5232,3.5241,3.5314,3.5351,3.5337,3.5415,3.545,3.5521,3.5546,3.5521,3.5653,3.5687,3.5794,3.5825,3.5853,3.5873,3.584,3.5974,3.5986,3.5997,3.6037,3.6053,3.5861,3.5861,3.5861,3.586,0,3.5287,3.5356,3.5412,3.5481,3.5525,3.56,3.5619,3.5662,3.5661,3.568,3.5771,3.5811,3.5876,3.5903,3.5903,3.601,3.5994,3.5971,3.5924,3.6017,3.6055,3.607,3.5866,3.5865,3.5864,3.5863,0,0,3.5428,3.55,3.552,3.555,3.5609,3.5661,3.5735,3.58,3.5835,3.5884,3.5944,3.6035,3.6013,3.605,3.6054,3.6103,3.6196,3.6073,3.6075,3.6092,3.6313,3.6327,3.6345,3.6188,3.6191,3.6193,3.6307,0,3.5545,3.5675,3.5685,3.5801,3.5863,3.5851,3.5915,3.5956,3.5976,3.603,3.6051,3.6113,3.6082,3.6104,3.6152,3.6175,3.624,3.6167,3.6241,3.6244,3.6226,3.6365,3.6381,3.6487,3.6322,3.6325,3.6327,0,3.5698,3.5751,3.5874,3.5922,3.5948,3.6005,3.6064,3.6117,3.6163,3.6174,3.6214,3.6211,3.6285,3.6237,3.6337,3.6287,3.6318,3.6334,3.6338,3.6343,3.6289,3.6371,3.6521,3.6536,3.6351,3.6349,3.6347,0,3.5785,3.5887,3.5973,3.6,3.6058,3.6098,3.6124,3.6168,3.6205,3.6256,3.628,3.6339,3.6371,3.6416,3.6428,3.6393,3.6527,3.6481,3.6535,3.6535,3.6562,3.6559,3.6716,3.6587,3.6587,3.6587,3.6586,0,3.5912,3.5987,3.6012,3.6065,3.6147,3.6158,3.6239,3.6263,3.6301,3.6357,3.6351,3.6402,3.6417,3.6471,3.6482,3.6561,3.6576,3.6585,3.6586,3.6583,3.6582,3.6602,3.6593,3.6591,3.659,3.6589,3.6588,0,3.6022,3.6042,3.6134,3.6182,3.6196,3.6254,3.6294,3.6344,3.6362,3.6432,3.6449,3.6477,3.6541,3.6558,3.6634,3.6641,3.6733,3.6729,3.6717,3.6716,3.6768,3.6762,3.6941,3.6963,3.6822,3.6824,3.6825,0,3.61,3.6157,3.6211,3.6248,3.6275,3.6335,3.6373,3.6386,3.6425,3.6481,3.6524,3.6586,3.6636,3.6738,3.6764,3.6821,3.6817,3.6875,3.6825,3.682,3.6813,3.6809,3.6813,3.6884,3.6885,3.6887,3.6888,0,3.6236,3.6243,3.6298,3.6357,3.6402,3.6449,3.6493,3.6524,3.6542,3.6587,3.6651,3.669,3.6767,3.6828,3.6886,3.6911,3.6902,3.6904,3.6919,3.6915,3.6904,3.6908,3.674,3.6899,3.6898,3.6897,3.6896,3.6896,3.633,3.6379,3.6424,3.6485,3.652,3.6561,3.6609,3.6633,3.6688,3.6751,3.6756,3.6825,3.6868,3.6945,3.6973,3.7026,3.7008,3.7031,3.7036,3.7041,3.7043,3.6899,3.7037,3.7037,3.7037,3.7037,3.7036,0,3.6463,3.6491,3.6547,3.6609,3.6657,3.6645,3.6694,3.6733,3.6795,3.6836,3.6886,3.6959,3.7017,3.7048,3.7106,3.7143,3.714,3.7157,3.7153,3.7158,3.7058,3.7037,3.7159,3.7159,3.7159,3.7159,3.7158,3.7158,3.6537,3.6618,3.663,3.6728,3.6755,3.6823,3.6852,3.6889,3.6922,3.7003,3.7052,3.7073,3.7109,3.7169,3.7222,3.7229,3.725,3.7269,3.7274,3.7178,3.7166,3.7154,3.7135,3.7274,3.7274,3.7369,3.737,3.7371]},{"header":{"parameterUnit":"m.s-1","parameterCategory":1,"la1":30.2991,"la2":30.254,"lo1":-89.0895,"lo2":-89.0444,"dy":0.0017,"dx":0.0017,"nx":28,"ny":28,"refTime":"2024-07-04T03:00:00:Z","depth":0,"parameterNumber":3,"parameterNumberName":"V-component_of_WINDS"},"data":[0,0,0,0,0,0,0,0,0,0,0,0,0,0,0,0,0,0,0,0,0,0,0,0,0,0,0,0,0,0,0,0,0,0,0,0,0,0,0,0,0,0,0,0,0,0,0,0,0,0,0,0,0,0,0,0,0,0,4.3843,4.3844,0,4.3931,4.3932,4.3933,4.3891,4.3889,4.3887,4.3885,4.397,4.3974,4.3979,0,0,0,0,0,0,0,0,0,0,0,0,0,4.3632,4.3636,4.3843,4.3844,4.3845,4.3931,4.3932,4.3934,4.3892,4.3889,4.3886,4.3884,4.3969,4.3974,4.3979,0,0,0,0,0,0,0,0,0,0,0,0,0,4.3722,4.3638,4.3843,4.3835,4.3835,4.3931,4.3933,4.3934,4.3892,4.3889,4.3885,4.3882,4.3967,4.3973,4.398,4.4087,0,0,4.4,4.4003,0,0,0,0,0,0,0,0,4.3717,4.373,4.3835,4.3836,4.3836,4.3897,4.3889,4.3985,4.3893,4.387,4.3885,4.3881,4.3948,4.3956,4.398,4.4091,4.4095,4.4,4.4004,4.4007,4.4009,0,0,0,0,0,0,0,4.3711,4.3726,4.3878,4.3837,4.3837,4.3825,4.3834,4.3907,4.3927,4.3872,4.3869,4.3881,4.3948,4.3974,4.3982,4.4096,4.4,4.4006,4.401,4.4013,4.4298,4.4301,0,0,0,0,0,0,4.3706,4.3721,4.3875,4.3881,4.3767,4.3831,4.3842,4.3881,4.3926,4.393,4.3883,4.3878,4.3964,4.3974,4.3984,4.4112,4.4007,4.4013,4.4017,4.4294,4.4299,4.4303,0,0,0,0,0,0,4.3702,4.372,4.3872,4.38,4.3819,4.3839,4.3883,4.3884,4.391,4.3935,4.3937,4.3907,4.3962,4.3975,4.4062,4.4114,4.4016,4.4022,4.429,4.4296,4.4301,4.4369,0,0,0,0,0,0,4.3696,4.3719,4.3762,4.3802,4.3823,4.395,4.3886,4.3888,4.3922,4.3916,4.3957,4.3961,4.396,4.4052,4.4068,4.4122,4.4027,4.4285,4.4292,4.4299,4.4362,4.4376,4.4388,0,0,0,0,0,4.3688,4.3777,4.3764,4.3783,4.3877,4.3953,4.3965,4.3964,4.3927,4.3968,4.3984,4.3959,4.4106,4.4062,4.4079,4.4135,4.4282,4.429,4.4298,4.4356,4.4373,4.4388,0,0,0,0,0,0,4.3741,4.3782,4.3768,4.3872,4.391,4.3946,4.3999,4.3982,4.403,4.4022,4.4018,4.4027,4.4117,4.4135,4.4084,4.424,4.4188,4.42,4.4226,4.4242,4.4255,4.4248,4.4033,0,0,0,0,0,4.3765,4.3825,4.3857,4.3945,4.3965,4.3979,4.4012,4.4008,4.4046,4.4061,4.4083,4.4119,4.4173,4.4208,4.426,4.4364,4.4371,4.4411,4.4424,4.4435,4.4445,4.4499,4.4517,4.433,4.433,4.4329,0,0,4.3814,4.3844,4.3882,4.3957,4.3985,4.4046,4.3992,4.4059,4.4103,4.407,4.4154,4.4171,4.4211,4.4306,4.435,4.4324,4.4498,4.4445,4.4453,4.4458,4.451,4.4527,4.4543,4.4335,4.4334,4.4333,0,0,4.3935,4.3965,4.4041,4.4071,4.4115,4.4123,4.4142,4.418,4.4191,4.4275,4.4251,4.4302,4.4396,4.4425,4.4452,4.4582,4.4561,4.4599,4.4666,4.472,4.4734,4.4747,4.4792,4.4809,4.4609,4.4609,4.4609,0,4.3991,4.4083,4.4082,4.4151,4.4183,4.4158,4.4234,4.4262,4.432,4.4342,4.4312,4.4429,4.4454,4.4555,4.4587,4.461,4.4629,4.4594,4.4733,4.4746,4.4758,4.4801,4.4818,4.4613,4.4613,4.4613,4.4612,0,4.4149,4.4213,4.4269,4.4327,4.4365,4.4437,4.4445,4.4484,4.4476,4.4487,4.4571,4.46,4.4656,4.468,4.4673,4.478,4.4762,4.4733,4.468,4.478,4.482,4.4837,4.462,4.4618,4.4617,4.4616,0,0,4.4306,4.4362,4.4382,4.4407,4.4454,4.4502,4.4571,4.4627,4.466,4.47,4.4757,4.4836,4.4809,4.484,4.4835,4.4882,4.4982,4.4847,4.4848,4.487,4.5099,4.512,4.514,4.4968,4.4971,4.4974,4.5095,0,4.4429,4.4553,4.4554,4.4667,4.4725,4.4701,4.4761,4.4794,4.4806,4.4855,4.4866,4.4922,4.4883,4.4901,4.4947,4.496,4.5028,4.4951,4.5019,4.5021,4.5009,4.5161,4.5184,4.5297,4.5111,4.5114,4.5116,0,4.4591,4.4637,4.4757,4.4793,4.4817,4.4872,4.4922,4.497,4.5006,4.5011,4.5045,4.5033,4.5101,4.5047,4.5139,4.5088,4.5115,4.5125,4.513,4.5135,4.5074,4.5169,4.5334,4.535,4.5141,4.5139,4.5137,0,4.4692,4.4784,4.4867,4.489,4.4934,4.4973,4.4993,4.5026,4.5059,4.5103,4.5124,4.5174,4.5201,4.5239,4.524,4.52,4.5333,4.5279,4.5337,4.5337,4.5366,4.5364,4.5536,4.5385,4.5385,4.5384,4.5384,0,4.4829,4.4903,4.4913,4.4964,4.5045,4.5044,4.5123,4.5139,4.5169,4.5221,4.5202,4.5251,4.525,4.5299,4.53,4.5375,4.5388,4.5392,4.5391,4.5394,4.5393,4.5411,4.5403,4.5389,4.5388,4.5387,4.5386,0,4.4956,4.4966,4.5055,4.509,4.51,4.5158,4.5187,4.5234,4.5244,4.531,4.5325,4.5339,4.5396,4.54,4.5466,4.5466,4.5557,4.5548,4.5545,4.5544,4.5601,4.5595,4.579,4.5815,4.5649,4.565,4.5652,0,4.5043,4.5099,4.514,4.5174,4.5197,4.5252,4.5286,4.5286,4.5321,4.5366,4.5408,4.5463,4.5507,4.5598,4.5612,4.5661,4.5653,4.5718,4.566,4.566,4.5652,4.5649,4.5653,4.5729,4.573,4.5732,4.5733,0,4.5195,4.5197,4.5248,4.53,4.5341,4.5381,4.5419,4.5447,4.5451,4.5492,4.555,4.5584,4.5651,4.5705,4.5753,4.5771,4.5752,4.5751,4.5767,4.577,4.5765,4.5767,4.5575,4.5747,4.5745,4.5744,4.5744,4.5743,4.5304,4.5352,4.5388,4.5444,4.5473,4.5508,4.5554,4.557,4.5619,4.5674,4.567,4.5734,4.5767,4.583,4.5851,4.59,4.5878,4.5901,4.5907,4.5912,4.5918,4.5758,4.5908,4.5908,4.5908,4.5907,4.5907,0,4.5454,4.5476,4.5528,4.5582,4.5625,4.5606,4.5646,4.5683,4.574,4.5773,4.5817,4.5883,4.5934,4.5953,4.6003,4.6038,4.6031,4.6051,4.6048,4.6052,4.5935,4.5916,4.6056,4.6056,4.6056,4.6056,4.6056,4.6056,4.5538,4.5618,4.5624,4.5717,4.5738,4.5802,4.5826,4.5858,4.5884,4.5959,4.6002,4.6015,4.6041,4.6093,4.6139,4.6143,4.6161,4.6185,4.6185,4.6076,4.6061,4.6046,4.6028,4.619,4.619,4.6298,4.6299,4.63]}]]